(176990) = 1989 UJ2 = 2003 AD9

Discovered at Socorro on 2003-01-04 by LINEAR.

Orbit

Orbit type: Main Belt

Note: WebGL enabled browser required.

epoch2023-02-25.0
epoch JD2460000.5
perihelion date2020-07-16.06751
perihelion JD2459046.56751
argument of perihelion (°)348.53861
ascending node (°)44.04885
inclination (°)11.06791
eccentricity0.3688400
perihelion distance (AU)1.6937661
Tisserand w.r.t. Jupiter3.2
ΔV w.r.t. Earth (km/sec)8.9
semimajor axis (AU)2.6835765
mean anomaly (°)213.87032
mean daily motion (°/day)0.22419860
aphelion distance (AU)3.673
period (years)4.4
P-vector [x]0.84000063
P-vector [y]0.51175433
P-vector [z]0.18029544
Q-vector [x]-0.52591247
Q-vector [y]0.68618289
Q-vector [z]0.50256255
absolute magnitude16.23
phase slope0.15
uncertainty0
referenceMPO 745323
observations used546
oppositions15
arc length (days)15597
first opposition used1980
last opposition used2023
residual rms (arc-secs)0.72
perturbers coarse indicatorM-v
perturbers precise indicator003Ek
first observation date used1980-09-30.0
last observation date used2023-06-14.0
computer nameMPCLINUX
JD of orbit computation2456819.496571
perihelion JD uncertainty (days)3.8026E-05
argument of perihelion uncertainty (°)3.0846E-05
ascending node uncertainty (°)2.7540E-05
inclination uncertainty (°)1.0041E-05
eccentricity uncertainty 7.4524E-08
perihelion distance uncertainty (AU)1.9812E-07
Minimum Orbit Intersection Distances (in AU)
for orbit epoch: 2460000.5, reference: E2023-L82
Mercury1.36524
Venus0.96971
Earth0.70033
Mars0.24268
Jupiter1.76367
Saturn6.10122
Uranus14.9421
Neptune27.0599

Observations

560 total observations over interval: 1980 09 30.49321 – 2023 06 14.261296
These data are available for download (format description).

Date (UT) J2000 RA J2000 Dec Magn Location Ref
1980 09 30.49321 22 26 23.61 -28 56 02.6   260 – Siding Spring Observatory-DSS MPS 100695
1980 09 30.53835 22 26 22.16 -28 55 36.8   260 – Siding Spring Observatory-DSS MPS 100695
1989 10 27.30816 02 58 49.38 +14 22 23.3 16.2   675 – Palomar Mountain MPC 15501
1989 10 27.33194 02 58 47.96 +14 22 38.8   675 – Palomar Mountain MPC 15501
1989 10 29.32361 02 56 56.60 +14 43 44.1   675 – Palomar Mountain MPC 15501
1989 10 29.34878 02 56 55.16 +14 43 58.6   675 – Palomar Mountain MPC 15501
1989 10 29.59861 02 56 41.21 +14 46 28.8 16.5   399 – Kushiro MPC 16136
1989 10 29.63403 02 56 39.14 +14 46 53.2   399 – Kushiro MPC 16136
1999 01 09.30987 07 10 28.19 +40 37 23.6 18.4 R 699 – Lowell Observatory-LONEOS MPS 123549
1999 01 09.32773 07 10 26.82 +40 37 25.8   699 – Lowell Observatory-LONEOS MPS 123549
1999 01 09.34558 07 10 25.35 +40 37 28.9   699 – Lowell Observatory-LONEOS MPS 123549
1999 01 16.20300 07 02 04.65 +40 47 40.8 19.6   704 – Lincoln Laboratory ETS, New Mexico MPS 123549
1999 01 16.22497 07 02 03.15 +40 47 39.4 19.8   704 – Lincoln Laboratory ETS, New Mexico MPS 123549
1999 01 16.24705 07 02 01.64 +40 47 41.3 19.6   704 – Lincoln Laboratory ETS, New Mexico MPS 123549
1999 01 16.26898 07 02 00.10 +40 47 41.4 20.7   704 – Lincoln Laboratory ETS, New Mexico MPS 123549
2002 08 13.31372 23 37 46.21 -24 52 58.0 18.6   704 – Lincoln Laboratory ETS, New Mexico MPS 83405
2002 08 13.32956 23 37 45.94 -24 53 04.0 18.6   704 – Lincoln Laboratory ETS, New Mexico MPS 83405
2002 08 13.37661 23 37 45.08 -24 53 23.4 18.8   704 – Lincoln Laboratory ETS, New Mexico MPS 83405
2002 08 21.34343 23 34 28.10 -25 41 22.2 18.3   644 – Palomar Mountain/NEAT MPS 83405
2002 08 21.36481 23 34 27.31 -25 41 29.5 18.1   644 – Palomar Mountain/NEAT MPS 83405
2002 08 21.38575 23 34 26.58 -25 41 36.6 18.4   644 – Palomar Mountain/NEAT MPS 83405
2002 09 10.27611 23 18 24.04 -26 53 53.5 17.8   644 – Palomar Mountain/NEAT MPS 83405
2002 09 10.29745 23 18 22.73 -26 53 54.5 17.9   644 – Palomar Mountain/NEAT MPS 83405
2002 09 10.31832 23 18 21.43 -26 53 55.4 17.7   644 – Palomar Mountain/NEAT MPS 83405
2002 09 17.30841 23 11 30.93 -26 48 45.8 17.5   644 – Palomar Mountain/NEAT MPS 83405
2002 09 17.32956 23 11 29.64 -26 48 43.0 17.5   644 – Palomar Mountain/NEAT MPS 83405
2002 09 17.35090 23 11 28.32 -26 48 40.1 17.6   644 – Palomar Mountain/NEAT MPS 83405
2002 09 26.19103 23 03 29.07 -26 12 45.6 17.5   704 – Lincoln Laboratory ETS, New Mexico MPS 83405
2002 09 26.20689 23 03 28.20 -26 12 40.0 18.2   704 – Lincoln Laboratory ETS, New Mexico MPS 83405
2002 09 26.22268 23 03 27.37 -26 12 34.7 18.3   704 – Lincoln Laboratory ETS, New Mexico MPS 83405
2002 09 26.25458 23 03 25.69 -26 12 23.5 17.9   704 – Lincoln Laboratory ETS, New Mexico MPS 83405
2002 10 30.35440 22 55 37.98 -19 27 07.0 20.3   608 – Haleakala-AMOS MPS 83405
2002 10 30.36496 22 55 38.22 -19 26 56.6 20.3   608 – Haleakala-AMOS MPS 83405
2002 10 30.37587 22 55 38.44 -19 26 46.2 20.1   608 – Haleakala-AMOS MPS 83405
2002 11 04.39850 22 58 16.48 -18 02 41.1 20.0   608 – Haleakala-AMOS MPS 83405
2002 11 04.40906 22 58 16.87 -18 02 30.1 19.6   608 – Haleakala-AMOS MPS 83405
2002 11 04.41962 22 58 17.22 -18 02 19.3 19.9   608 – Haleakala-AMOS MPS 83405
2002 11 17.14660 23 08 49.50 -14 14 01.9 19.0   644 – Palomar Mountain/NEAT MPS 82282
2002 11 17.16780 23 08 50.75 -14 13 38.5 19.4   644 – Palomar Mountain/NEAT MPS 82282
2002 11 17.18923 23 08 52.01 -14 13 14.6 19.0   644 – Palomar Mountain/NEAT MPS 82282
2002 11 24.09955 23 16 35.09 -12 02 39.9 18.6 R 699 – Lowell Observatory-LONEOS MPS 82282
2002 11 24.11024 23 16 35.80 -12 02 25.2   699 – Lowell Observatory-LONEOS MPS 82282
2002 11 24.12104 23 16 36.61 -12 02 13.9   699 – Lowell Observatory-LONEOS MPS 82282
2002 11 24.13172 23 16 37.23 -12 02 01.2   699 – Lowell Observatory-LONEOS MPS 82282
2003 01 04.07512 00 22 04.02 +01 29 19.7 19.3   704 – Lincoln Laboratory ETS, New Mexico MPS 70213
2003 01 04.09095 00 22 05.74 +01 29 38.1 19.6   704 – Lincoln Laboratory ETS, New Mexico MPS 70213
2003 01 04.10666 00 22 07.52 +01 29 57.8 19.6   704 – Lincoln Laboratory ETS, New Mexico MPS 70213
2003 01 04.12209 00 22 09.23 +01 30 16.1 20.0   704 – Lincoln Laboratory ETS, New Mexico MPS 70213
2003 01 04.13745 00 22 11.05 +01 30 35.0 19.5   704 – Lincoln Laboratory ETS, New Mexico MPS 70213
2003 01 05.09771 00 24 01.03 +01 49 37.0 19.5   704 – Lincoln Laboratory ETS, New Mexico MPS 70213
2003 01 05.11278 00 24 02.66 +01 49 55.1 20.1   704 – Lincoln Laboratory ETS, New Mexico MPS 70213
2003 01 05.12798 00 24 04.39 +01 50 13.3 20.0   704 – Lincoln Laboratory ETS, New Mexico MPS 70213
2004 03 26.17281 11 22 28.40 +17 47 56.9 20.5 R 926 – Tenagra II Observatory, Nogales MPS 102209
2004 03 26.17506 11 22 28.21 +17 47 57.1 20.6 R 926 – Tenagra II Observatory, Nogales MPS 102209
2004 03 26.17730 11 22 28.12 +17 47 57.1 20.3 R 926 – Tenagra II Observatory, Nogales MPS 102209
2004 03 26.18120 11 22 27.90 +17 47 58.1 20.5 R 926 – Tenagra II Observatory, Nogales MPS 102209
2008 01 11.36089 10 02 25.58 +30 36 49.4 20.0 V 703 – Catalina Sky Survey MPS 233347
2008 01 11.36994 10 02 25.15 +30 36 53.8 19.4 V 703 – Catalina Sky Survey MPS 233347
2008 01 11.37900 10 02 24.68 +30 36 56.7 19.7 V 703 – Catalina Sky Survey MPS 233347
2008 01 11.38806 10 02 24.39 +30 37 01.9 20.1 V 703 – Catalina Sky Survey MPS 233347
2008 01 13.33641 10 00 55.43 +30 52 21.7 19.0   704 – Lincoln Laboratory ETS, New Mexico MPS 234182
2008 01 13.34940 10 00 54.85 +30 52 28.4 19.4   704 – Lincoln Laboratory ETS, New Mexico MPS 234182
2008 01 13.36246 10 00 54.16 +30 52 34.0 19.6   704 – Lincoln Laboratory ETS, New Mexico MPS 234182
2008 01 13.37545 10 00 53.48 +30 52 40.8 19.5   704 – Lincoln Laboratory ETS, New Mexico MPS 234182
2008 02 08.27681 09 33 11.77 +33 31 20.1 19.9   704 – Lincoln Laboratory ETS, New Mexico MPS 237448
2008 02 08.28890 09 33 10.87 +33 31 20.0 20.0   704 – Lincoln Laboratory ETS, New Mexico MPS 237448
2008 02 08.30099 09 33 09.95 +33 31 22.8 20.1   704 – Lincoln Laboratory ETS, New Mexico MPS 237448
2008 02 08.31308 09 33 09.09 +33 31 26.2 19.9   704 – Lincoln Laboratory ETS, New Mexico MPS 237448
2008 02 08.32522 09 33 08.20 +33 31 28.2 20.0   704 – Lincoln Laboratory ETS, New Mexico MPS 237448
2008 02 28.18190 09 12 06.22 +33 48 17.7 19.9 V 703 – Catalina Sky Survey MPS 240568
2008 02 28.18912 09 12 05.90 +33 48 18.1 19.9 V 703 – Catalina Sky Survey MPS 240568
2008 02 28.19632 09 12 05.50 +33 48 16.2 20.5 V 703 – Catalina Sky Survey MPS 240568
2008 02 28.20360 09 12 05.07 +33 48 15.2 19.7 V 703 – Catalina Sky Survey MPS 240568
2008 03 05.20308 09 07 30.21 +33 34 43.8 20.2 V G96 – Mt. Lemmon Survey MPS 241924
2008 03 05.20720 09 07 30.00 +33 34 43.2 20.2 V G96 – Mt. Lemmon Survey MPS 241924
2008 03 05.23282 09 07 28.92 +33 34 39.0 20.4 V G96 – Mt. Lemmon Survey MPS 241924
2008 03 05.23674 09 07 28.74 +33 34 38.2 20.1 V G96 – Mt. Lemmon Survey MPS 241924
2009 04 30.25186 13 10 42.52 -01 36 31.2 21.4 V G96 – Mt. Lemmon Survey MPS 286363
2009 04 30.26256 13 10 42.02 -01 36 30.7 22.6 V G96 – Mt. Lemmon Survey MPS 286363
2009 04 30.27325 13 10 41.55 -01 36 29.0 21.8 V G96 – Mt. Lemmon Survey MPS 286363
2009 04 30.28388 13 10 41.12 -01 36 28.1 21.5 V G96 – Mt. Lemmon Survey MPS 286363
2011 09 22.42500 03 52 52.06 +14 25 55.7 18.2 V 703 – Catalina Sky Survey MPS 392289
2011 09 22.43287 03 52 52.50 +14 26 00.7 18.0 V 703 – Catalina Sky Survey MPS 392289
2011 09 22.44075 03 52 52.93 +14 26 06.4 17.9 V 703 – Catalina Sky Survey MPS 392289
2011 09 22.44862 03 52 53.43 +14 26 12.3 17.7 V 703 – Catalina Sky Survey MPS 392289
2011 09 26.35953 03 56 25.25 +15 10 32.4 19.2   704 – Lincoln Laboratory ETS, New Mexico MPS 393946
2011 09 26.37246 03 56 25.85 +15 10 41.1 19.5   704 – Lincoln Laboratory ETS, New Mexico MPS 393946
2011 09 26.38511 03 56 26.45 +15 10 50.5 19.4   704 – Lincoln Laboratory ETS, New Mexico MPS 393946
2011 09 26.39787 03 56 26.99 +15 10 58.6 19.3   704 – Lincoln Laboratory ETS, New Mexico MPS 393946
2011 09 29.36454 03 58 45.01 +15 45 05.7 17.8 V 703 – Catalina Sky Survey MPS 393946
2011 09 29.36845 03 58 45.15 +15 45 08.9 17.8 V 703 – Catalina Sky Survey MPS 393946
